STARLINK-4079 (52666 NORAD) Tracking and Keplerian Element Data

This shows tracking and keplerian element data for the satellite.

Feedback or suggestion? Click here.




ElementValue
Catalog52666
NameSTARLINK-4079
Epoch Orbit130
Epoch Day192.91667824
Epoch Year2022
RAAN35.3898
Inclination53.2174
Eccentricity0.0002002
Argument of Perigee33.7328
Mean Anonmoly37.3118
Mean Motion15.19658762
Decay Rate-0.00725919
L11 52666U 22053L 22192.91667824 -.00725919 00000+0 -36081-1 0 9999
L22 52666 53.2174 35.3898 0002002 33.7328 37.3118 15.19658762 1302

Live tracking and technical data element details for STARLINK-4079 (NORAD 52666). STARLINK-4079 can be tracked NOW for your location showing map with azimuth and elevation plus other details from your city location.

Track the satellite on the map from your city or location and see movement details for azimuth, elevation, latitude, longitude, range, height, and movement on the map or in text.







IsCatalogInMostPopularTable: catalog: 52666, numindb: 8
Update: records affected: 1



GetName: 52666 STARLINK-4079

Hit Count: updated at: Sun, 14 Aug 2022 01:28:45 GMT